"Time","Value","Approval","myLocation"
"2023-05-06 00:00",8.9175332406804,"Approved","OW506"
"2023-05-06 01:00",8.90752728442006,"Approved","OW506"
"2023-05-06 02:00",8.89752132815973,"Approved","OW506"
"2023-05-06 03:00",8.8865153718994,"Approved","OW506"
"2023-05-06 04:00",8.87650941563907,"Approved","OW506"
"2023-05-06 05:00",8.86450345937874,"Approved","OW506"
"2023-05-06 06:00",8.85249750311841,"Approved","OW506"
"2023-05-06 07:00",8.84149154685807,"Approved","OW506"
"2023-05-06 08:00",8.82948559059774,"Approved","OW506"
"2023-05-06 09:00",8.81747963433741,"Approved","OW506"
"2023-05-06 10:00",8.80647367807708,"Approved","OW506"
"2023-05-06 11:00",8.79446772181675,"Approved","OW506"
"2023-05-06 12:00",8.78246176555641,"Approved","OW506"
"2023-05-06 13:00",8.77045580929608,"Approved","OW506"
"2023-05-06 14:00",8.75844985303575,"Approved","OW506"
"2023-05-06 15:00",8.74744389677542,"Approved","OW506"
"2023-05-06 16:00",8.73643794051509,"Approved","OW506"
"2023-05-06 17:00",8.72343198425475,"Approved","OW506"
"2023-05-06 18:00",8.71042602799442,"Approved","OW506"
"2023-05-06 19:00",8.69742007173409,"Approved","OW506"
"2023-05-06 20:00",8.68341411547376,"Approved","OW506"
"2023-05-06 21:00",8.66940815921343,"Approved","OW506"
"2023-05-06 22:00",8.6554022029531,"Approved","OW506"
"2023-05-06 23:00",8.64139624669276,"Approved","OW506"
"2023-05-07 00:00",8.62739029043243,"Approved","OW506"
"2023-05-07 01:00",8.6143843341721,"Approved","OW506"
"2023-05-07 02:00",8.60237837791177,"Approved","OW506"
"2023-05-07 03:00",8.58937242165144,"Approved","OW506"
"2023-05-07 04:00",8.57636646539111,"Approved","OW506"
"2023-05-07 05:00",8.56336050913078,"Approved","OW506"
"2023-05-07 06:00",8.55035455287044,"Approved","OW506"
"2023-05-07 07:00",8.53834859661011,"Approved","OW506"
"2023-05-07 08:00",8.52434264034978,"Approved","OW506"
"2023-05-07 09:00",8.51133668408945,"Approved","OW506"
"2023-05-07 10:00",8.49833072782912,"Approved","OW506"
"2023-05-07 11:00",8.48532477156878,"Approved","OW506"
"2023-05-07 12:00",8.47231881530845,"Approved","OW506"
"2023-05-07 13:00",8.46031285904812,"Approved","OW506"
"2023-05-07 14:00",8.44730690278779,"Approved","OW506"
"2023-05-07 15:00",8.43530094652746,"Approved","OW506"
"2023-05-07 16:00",8.42329499026713,"Approved","OW506"
"2023-05-07 17:00",8.41128903400679,"Approved","OW506"
"2023-05-07 18:00",8.39928307774646,"Approved","OW506"
"2023-05-07 19:00",8.38727712148613,"Approved","OW506"
"2023-05-07 20:00",8.3752711652258,"Approved","OW506"
"2023-05-07 21:00",8.36326520896547,"Approved","OW506"
"2023-05-07 22:00",8.35125925270513,"Approved","OW506"
"2023-05-07 23:00",8.3402532964448,"Approved","OW506"
"2023-05-08 00:00",8.32924734018447,"Approved","OW506"
"2023-05-08 01:00",8.31724138392414,"Approved","OW506"
"2023-05-08 02:00",8.30623542766381,"Approved","OW506"
"2023-05-08 03:00",8.29622947140348,"Approved","OW506"
"2023-05-08 04:00",8.28722351514314,"Approved","OW506"
"2023-05-08 05:00",8.27621755888281,"Approved","OW506"
"2023-05-08 06:00",8.26621160262248,"Approved","OW506"
"2023-05-08 07:00",8.25620564636215,"Approved","OW506"
"2023-05-08 08:00",8.24719969010182,"Approved","OW506"
"2023-05-08 09:00",8.23719373384149,"Approved","OW506"
"2023-05-08 10:00",8.22818777758115,"Approved","OW506"
"2023-05-08 11:00",8.21818182132082,"Approved","OW506"
"2023-05-08 12:00",8.20917586506049,"Approved","OW506"
"2023-05-08 13:00",8.20016990880016,"Approved","OW506"
"2023-05-08 14:00",8.19116395253983,"Approved","OW506"
"2023-05-08 15:00",8.1831579962795,"Approved","OW506"
"2023-05-08 16:00",8.17515204001916,"Approved","OW506"
"2023-05-08 17:00",8.16514608375883,"Approved","OW506"
"2023-05-08 18:00",8.1561401274985,"Approved","OW506"
"2023-05-08 19:00",8.14913417123817,"Approved","OW506"
"2023-05-08 20:00",8.13912821497784,"Approved","OW506"
"2023-05-08 21:00",8.1301222587175,"Approved","OW506"
"2023-05-08 22:00",8.12311630245717,"Approved","OW506"
"2023-05-08 23:00",8.11411034619684,"Approved","OW506"
"2023-05-09 00:00",8.10510438993651,"Approved","OW506"
"2023-05-09 01:00",8.09609843367618,"Approved","OW506"
"2023-05-09 02:00",8.08709247741585,"Approved","OW506"
"2023-05-09 03:00",8.07908652115552,"Approved","OW506"
"2023-05-09 04:00",8.07208056489518,"Approved","OW506"
"2023-05-09 05:00",8.06507460863485,"Approved","OW506"
"2023-05-09 06:00",8.05706865237452,"Approved","OW506"
"2023-05-09 07:00",8.04906269611419,"Approved","OW506"
"2023-05-09 08:00",8.04105673985386,"Approved","OW506"
"2023-05-09 09:00",8.03305078359352,"Approved","OW506"
"2023-05-09 10:00",8.02604482733319,"Approved","OW506"
"2023-05-09 11:00",8.01803887107286,"Approved","OW506"
"2023-05-09 12:00",8.01103291481253,"Approved","OW506"
"2023-05-09 13:00",8.0030269585522,"Approved","OW506"
"2023-05-09 14:00",7.99502100229186,"Approved","OW506"
"2023-05-09 15:00",7.98901504603153,"Approved","OW506"
"2023-05-09 16:00",7.9810090897712,"Approved","OW506"
"2023-05-09 17:00",7.97500313351087,"Approved","OW506"
"2023-05-09 18:00",7.96699717725054,"Approved","OW506"
"2023-05-09 19:00",7.95999122099021,"Approved","OW506"
"2023-05-09 20:00",7.95198526472987,"Approved","OW506"
"2023-05-09 21:00",7.94497930846954,"Approved","OW506"
"2023-05-09 22:00",7.93697335220921,"Approved","OW506"
"2023-05-09 23:00",7.92896739594888,"Approved","OW506"
"2023-05-10 00:00",7.92196143968855,"Approved","OW506"
"2023-05-10 01:00",7.91495548342822,"Approved","OW506"
"2023-05-10 02:00",7.90794952716788,"Approved","OW506"
"2023-05-10 03:00",7.90294357090755,"Approved","OW506"
"2023-05-10 04:00",7.89693761464722,"Approved","OW506"
"2023-05-10 05:00",7.89093165838689,"Approved","OW506"
"2023-05-10 06:00",7.88392570212656,"Approved","OW506"
"2023-05-10 07:00",7.87691974586623,"Approved","OW506"
"2023-05-10 08:00",7.87091378960589,"Approved","OW506"
"2023-05-10 09:00",7.86390783334556,"Approved","OW506"
"2023-05-10 10:00",7.85790187708523,"Approved","OW506"
"2023-05-10 11:00",7.8518959208249,"Approved","OW506"
"2023-05-10 12:00",7.84588996456457,"Approved","OW506"
"2023-05-10 13:00",7.83888400830423,"Approved","OW506"
"2023-05-10 14:00",7.8338780520439,"Approved","OW506"
"2023-05-10 15:00",7.82687209578357,"Approved","OW506"
"2023-05-10 16:00",7.82186613952324,"Approved","OW506"
"2023-05-10 17:00",7.81686018326291,"Approved","OW506"
"2023-05-10 18:00",7.80885422700258,"Approved","OW506"
"2023-05-10 19:00",7.80184827074225,"Approved","OW506"
"2023-05-10 20:00",7.79584231448191,"Approved","OW506"
"2023-05-10 21:00",7.78983635822158,"Approved","OW506"
"2023-05-10 22:00",7.78383040196125,"Approved","OW506"
"2023-05-10 23:00",7.77782444570092,"Approved","OW506"
"2023-05-11 00:00",7.77281848944059,"Approved","OW506"
"2023-05-11 01:00",7.76581253318025,"Approved","OW506"
"2023-05-11 02:00",7.75980657691992,"Approved","OW506"
"2023-05-11 03:00",7.75480062065959,"Approved","OW506"
"2023-05-11 04:00",7.74979466439926,"Approved","OW506"
"2023-05-11 05:00",7.74478870813893,"Approved","OW506"
"2023-05-11 06:00",7.7397827518786,"Approved","OW506"
"2023-05-11 07:00",7.73477679561826,"Approved","OW506"
"2023-05-11 08:00",7.72977083935793,"Approved","OW506"
"2023-05-11 09:00",7.7237648830976,"Approved","OW506"
"2023-05-11 10:00",7.71875892683727,"Approved","OW506"
"2023-05-11 11:00",7.71375297057694,"Approved","OW506"
"2023-05-11 12:00",7.70974701431661,"Approved","OW506"
"2023-05-11 13:00",7.70474105805627,"Approved","OW506"
"2023-05-11 14:00",7.70073510179594,"Approved","OW506"
"2023-05-11 15:00",7.69472914553561,"Approved","OW506"
"2023-05-11 16:00",7.68972318927528,"Approved","OW506"
"2023-05-11 17:00",7.68471723301495,"Approved","OW506"
"2023-05-11 18:00",7.67871127675461,"Approved","OW506"
"2023-05-11 19:00",7.67370532049428,"Approved","OW506"
"2023-05-11 20:00",7.66869936423395,"Approved","OW506"
"2023-05-11 21:00",7.66269340797362,"Approved","OW506"
"2023-05-11 22:00",7.65768745171329,"Approved","OW506"
"2023-05-11 23:00",7.65268149545296,"Approved","OW506"
"2023-05-12 00:00",7.64867553919262,"Approved","OW506"
"2023-05-12 01:00",7.64366958293229,"Approved","OW506"
"2023-05-12 02:00",7.63866362667196,"Approved","OW506"
"2023-05-12 03:00",7.63465767041163,"Approved","OW506"
"2023-05-12 04:00",7.6306517141513,"Approved","OW506"
"2023-05-12 05:00",7.62664575789097,"Approved","OW506"
"2023-05-12 06:00",7.62163980163063,"Approved","OW506"
"2023-05-12 07:00",7.6176338453703,"Approved","OW506"
"2023-05-12 08:00",7.61362788910997,"Approved","OW506"
"2023-05-12 09:00",7.60962193284964,"Approved","OW506"
"2023-05-12 10:00",7.60561597658931,"Approved","OW506"
"2023-05-12 11:00",7.60161002032897,"Approved","OW506"
"2023-05-12 12:00",7.59860406406864,"Approved","OW506"
"2023-05-12 13:00",7.59459810780831,"Approved","OW506"
"2023-05-12 14:00",7.59159215154798,"Approved","OW506"
"2023-05-12 15:00",7.58658619528765,"Approved","OW506"
"2023-05-12 16:00",7.57858023902732,"Approved","OW506"
"2023-05-12 17:00",7.57457428276699,"Approved","OW506"
"2023-05-12 18:00",7.57356832650665,"Approved","OW506"
"2023-05-12 19:00",7.56756237024632,"Approved","OW506"
"2023-05-12 20:00",7.56255641398599,"Approved","OW506"
"2023-05-12 21:00",7.55755045772566,"Approved","OW506"
"2023-05-12 22:00",7.55254450146533,"Approved","OW506"
"2023-05-12 23:00",7.54853854520499,"Approved","OW506"
"2023-05-13 00:00",7.54653258894466,"Approved","OW506"
"2023-05-13 01:00",7.53952663268433,"Approved","OW506"
"2023-05-13 02:00",7.536520676424,"Approved","OW506"
"2023-05-13 03:00",7.53151472016367,"Approved","OW506"
"2023-05-13 04:00",7.52650876390334,"Approved","OW506"
"2023-05-13 05:00",7.523502807643,"Approved","OW506"
"2023-05-13 06:00",7.51949685138267,"Approved","OW506"
"2023-05-13 07:00",7.51449089512234,"Approved","OW506"
"2023-05-13 08:00",7.51048493886201,"Approved","OW506"
"2023-05-13 09:00",7.50547898260168,"Approved","OW506"
"2023-05-13 10:00",7.50147302634135,"Approved","OW506"
"2023-05-13 11:00",7.49746707008101,"Approved","OW506"
"2023-05-13 12:00",7.49446111382068,"Approved","OW506"
"2023-05-13 13:00",7.49045515756035,"Approved","OW506"
"2023-05-13 14:00",7.48644920130002,"Approved","OW506"
"2023-05-13 15:00",7.48244324503969,"Approved","OW506"
"2023-05-13 16:00",7.47743728877936,"Approved","OW506"
"2023-05-13 17:00",7.47243133251902,"Approved","OW506"
"2023-05-13 18:00",7.46842537625869,"Approved","OW506"
"2023-05-13 19:00",7.46341941999836,"Approved","OW506"
"2023-05-13 20:00",7.45841346373803,"Approved","OW506"
"2023-05-13 21:00",7.4544075074777,"Approved","OW506"
"2023-05-13 22:00",7.45040155121736,"Approved","OW506"
"2023-05-13 23:00",7.44539559495703,"Approved","OW506"
"2023-05-14 00:00",7.4413896386967,"Approved","OW506"
"2023-05-14 01:00",7.43638368243637,"Approved","OW506"
"2023-05-14 02:00",7.43337772617604,"Approved","OW506"
"2023-05-14 03:00",7.42837176991571,"Approved","OW506"
"2023-05-14 04:00",7.42536581365537,"Approved","OW506"
"2023-05-14 05:00",7.42135985739504,"Approved","OW506"
"2023-05-14 06:00",7.41635390113471,"Approved","OW506"
"2023-05-14 07:00",7.41234794487438,"Approved","OW506"
"2023-05-14 08:00",7.40734198861405,"Approved","OW506"
"2023-05-14 09:00",7.40333603235372,"Approved","OW506"
"2023-05-14 10:00",7.39833007609338,"Approved","OW506"
"2023-05-14 11:00",7.39332411983305,"Approved","OW506"
"2023-05-14 12:00",7.38931816357272,"Approved","OW506"
"2023-05-14 13:00",7.38531220731239,"Approved","OW506"
"2023-05-14 14:00",7.38130625105206,"Approved","OW506"
"2023-05-14 15:00",7.37630029479172,"Approved","OW506"
"2023-05-14 16:00",7.37129433853139,"Approved","OW506"
"2023-05-14 17:00",7.36528838227106,"Approved","OW506"
"2023-05-14 18:00",7.36228242601073,"Approved","OW506"
"2023-05-14 19:00",7.3562764697504,"Approved","OW506"
"2023-05-14 20:00",7.35127051349007,"Approved","OW506"
"2023-05-14 21:00",7.34626455722973,"Approved","OW506"
"2023-05-14 22:00",7.3422586009694,"Approved","OW506"
"2023-05-14 23:00",7.33725264470907,"Approved","OW506"
"2023-05-15 00:00",7.33424668844874,"Approved","OW506"
"2023-05-15 01:00",7.33024073218841,"Approved","OW506"
"2023-05-15 02:00",7.32623477592808,"Approved","OW506"
"2023-05-15 03:00",7.32222881966774,"Approved","OW506"
"2023-05-15 04:00",7.32022286340741,"Approved","OW506"
"2023-05-15 05:00",7.31621690714708,"Approved","OW506"
"2023-05-15 06:00",7.31121095088675,"Approved","OW506"
"2023-05-15 07:00",7.30620499462642,"Approved","OW506"
"2023-05-15 08:00",7.30119903836609,"Approved","OW506"
"2023-05-15 09:00",7.29719308210575,"Approved","OW506"
"2023-05-15 10:00",7.29318712584542,"Approved","OW506"
"2023-05-15 11:00",7.28818116958509,"Approved","OW506"
"2023-05-15 12:00",7.28417521332476,"Approved","OW506"
"2023-05-15 13:00",7.28016925706443,"Approved","OW506"
"2023-05-15 14:00",7.2771633008041,"Approved","OW506"
"2023-05-15 15:00",7.27215734454376,"Approved","OW506"
"2023-05-15 16:00",7.26715138828343,"Approved","OW506"
"2023-05-15 17:00",7.2621454320231,"Approved","OW506"
"2023-05-15 18:00",7.25713947576277,"Approved","OW506"
"2023-05-15 19:00",7.25213351950244,"Approved","OW506"
"2023-05-15 20:00",7.2471275632421,"Approved","OW506"
"2023-05-15 21:00",7.24312160698177,"Approved","OW506"
"2023-05-15 22:00",7.23911565072144,"Approved","OW506"
"2023-05-15 23:00",7.23510969446111,"Approved","OW506"
"2023-05-16 00:00",7.23310373820078,"Approved","OW506"
"2023-05-16 01:00",7.22909778194045,"Approved","OW506"
"2023-05-16 02:00",7.22509182568011,"Approved","OW506"
"2023-05-16 03:00",7.22208586941978,"Approved","OW506"
"2023-05-16 04:00",7.21907991315945,"Approved","OW506"
"2023-05-16 05:00",7.21507395689912,"Approved","OW506"
"2023-05-16 06:00",7.21006800063879,"Approved","OW506"
"2023-05-16 07:00",7.20606204437846,"Approved","OW506"
"2023-05-16 08:00",7.20105608811812,"Approved","OW506"
"2023-05-16 09:00",7.19705013185779,"Approved","OW506"
"2023-05-16 10:00",7.19304417559746,"Approved","OW506"
"2023-05-16 11:00",7.18903821933713,"Approved","OW506"
"2023-05-16 12:00",7.1850322630768,"Approved","OW506"
"2023-05-16 13:00",7.18302630681647,"Approved","OW506"
"2023-05-16 14:00",7.17902035055613,"Approved","OW506"
"2023-05-16 15:00",7.1760143942958,"Approved","OW506"
"2023-05-16 16:00",7.17200843803547,"Approved","OW506"
"2023-05-16 17:00",7.16800248177514,"Approved","OW506"
"2023-05-16 17:22",7.16700029781302,"Approved","OW506"
"2023-05-16 18:00",7.1650037166826,"Approved","OW506"
"2023-05-16 19:00",7.16101008813847,"Approved","OW506"
"2023-05-16 20:00",7.15701645959435,"Approved","OW506"
"2023-05-16 21:00",7.15302283105023,"Approved","OW506"
"2023-05-16 22:00",7.15002920250611,"Approved","OW506"
"2023-05-16 23:00",7.14703557396198,"Approved","OW506"
"2023-05-17 00:00",7.14404194541786,"Approved","OW506"
"2023-05-17 01:00",7.14004831687374,"Approved","OW506"
"2023-05-17 02:00",7.14005468832962,"Approved","OW506"
"2023-05-17 03:00",7.13606105978549,"Approved","OW506"
"2023-05-17 04:00",7.13206743124137,"Approved","OW506"
"2023-05-17 05:00",7.12907380269725,"Approved","OW506"
"2023-05-17 06:00",7.12508017415313,"Approved","OW506"
"2023-05-17 07:00",7.12108654560901,"Approved","OW506"
"2023-05-17 08:00",7.11709291706488,"Approved","OW506"
"2023-05-17 09:00",7.11309928852076,"Approved","OW506"
"2023-05-17 10:00",7.10910565997664,"Approved","OW506"
"2023-05-17 11:00",7.10611203143252,"Approved","OW506"
"2023-05-17 12:00",7.10411840288839,"Approved","OW506"
"2023-05-17 13:00",7.10112477434427,"Approved","OW506"
"2023-05-17 14:00",7.09913114580015,"Approved","OW506"
"2023-05-17 15:00",7.09713751725603,"Approved","OW506"
"2023-05-17 16:00",7.0931438887119,"Approved","OW506"
"2023-05-17 17:00",7.09015026016778,"Approved","OW506"
"2023-05-17 18:00",7.08715663162366,"Approved","OW506"
"2023-05-17 19:00",7.08316300307954,"Approved","OW506"
"2023-05-17 20:00",7.08016937453541,"Approved","OW506"
"2023-05-17 21:00",7.07817574599129,"Approved","OW506"
"2023-05-17 22:00",7.07518211744717,"Approved","OW506"
"2023-05-17 23:00",7.07218848890305,"Approved","OW506"
"2023-05-18 00:00",7.07019486035893,"Approved","OW506"
"2023-05-18 01:00",7.0692012318148,"Approved","OW506"
"2023-05-18 02:00",7.06720760327068,"Approved","OW506"
"2023-05-18 03:00",7.06621397472656,"Approved","OW506"
"2023-05-18 04:00",7.06622034618244,"Approved","OW506"
"2023-05-18 05:00",7.06422671763831,"Approved","OW506"
"2023-05-18 06:00",7.06323308909419,"Approved","OW506"
"2023-05-18 07:00",7.06223946055007,"Approved","OW506"
"2023-05-18 08:00",7.06024583200595,"Approved","OW506"
"2023-05-18 09:00",7.05925220346182,"Approved","OW506"
"2023-05-18 10:00",7.0582585749177,"Approved","OW506"
"2023-05-18 11:00",7.05726494637358,"Approved","OW506"
"2023-05-18 12:00",7.05627131782946,"Approved","OW506"
"2023-05-18 13:00",7.05527768928533,"Approved","OW506"
"2023-05-18 14:00",7.05428406074121,"Approved","OW506"
"2023-05-18 15:00",7.05529043219709,"Approved","OW506"
"2023-05-18 16:00",7.05329680365297,"Approved","OW506"
"2023-05-18 17:00",7.05130317510885,"Approved","OW506"
"2023-05-18 18:00",7.04930954656472,"Approved","OW506"
"2023-05-18 19:00",7.0473159180206,"Approved","OW506"
"2023-05-18 20:00",7.04332228947648,"Approved","OW506"
"2023-05-18 21:00",7.04132866093236,"Approved","OW506"
"2023-05-18 22:00",7.03833503238823,"Approved","OW506"
"2023-05-18 23:00",7.03634140384411,"Approved","OW506"
"2023-05-19 00:00",7.03434777529999,"Approved","OW506"
"2023-05-19 01:00",7.03235414675587,"Approved","OW506"
"2023-05-19 02:00",7.03036051821174,"Approved","OW506"
"2023-05-19 03:00",7.03036688966762,"Approved","OW506"
"2023-05-19 04:00",7.0293732611235,"Approved","OW506"
"2023-05-19 05:00",7.02937963257938,"Approved","OW506"
"2023-05-19 06:00",7.02738600403526,"Approved","OW506"
"2023-05-19 07:00",7.02739237549113,"Approved","OW506"
"2023-05-19 08:00",7.02439874694701,"Approved","OW506"
"2023-05-19 09:00",7.02240511840289,"Approved","OW506"
"2023-05-19 10:00",7.02141148985877,"Approved","OW506"
"2023-05-19 11:00",7.02141786131464,"Approved","OW506"
"2023-05-19 12:00",7.01942423277052,"Approved","OW506"
"2023-05-19 13:00",7.0184306042264,"Approved","OW506"
"2023-05-19 14:00",7.01843697568228,"Approved","OW506"
"2023-05-19 15:00",7.01744334713815,"Approved","OW506"
"2023-05-19 16:00",7.01544971859403,"Approved","OW506"
"2023-05-19 17:00",7.01445609004991,"Approved","OW506"
"2023-05-19 18:00",7.01146246150579,"Approved","OW506"
"2023-05-19 19:00",7.00946883296167,"Approved","OW506"
"2023-05-19 20:00",7.00847520441754,"Approved","OW506"
"2023-05-19 21:00",7.00648157587342,"Approved","OW506"
"2023-05-19 22:00",7.0044879473293,"Approved","OW506"
"2023-05-19 23:00",7.00349431878518,"Approved","OW506"
"2023-05-20 00:00",7.00150069024105,"Approved","OW506"
"2023-05-20 01:00",6.99950706169693,"Approved","OW506"
"2023-05-20 02:00",6.99851343315281,"Approved","OW506"
"2023-05-20 03:00",6.99851980460869,"Approved","OW506"
"2023-05-20 04:00",6.99852617606456,"Approved","OW506"
"2023-05-20 05:00",6.99953254752044,"Approved","OW506"
"2023-05-20 06:00",6.99853891897632,"Approved","OW506"
"2023-05-20 07:00",6.9985452904322,"Approved","OW506"
"2023-05-20 08:00",6.99855166188807,"Approved","OW506"
"2023-05-20 09:00",6.99755803334395,"Approved","OW506"
"2023-05-20 10:00",6.99656440479983,"Approved","OW506"
"2023-05-20 11:00",6.99557077625571,"Approved","OW506"
"2023-05-20 12:00",6.99557714771159,"Approved","OW506"
"2023-05-20 13:00",6.99558351916746,"Approved","OW506"
"2023-05-20 14:00",6.99558989062334,"Approved","OW506"
"2023-05-20 15:00",6.99659626207922,"Approved","OW506"
"2023-05-20 16:00",6.9946026335351,"Approved","OW506"
"2023-05-20 17:00",6.99360900499097,"Approved","OW506"
"2023-05-20 18:00",6.99361537644685,"Approved","OW506"
"2023-05-20 19:00",6.99262174790273,"Approved","OW506"
"2023-05-20 20:00",6.99062811935861,"Approved","OW506"
"2023-05-20 21:00",6.98963449081448,"Approved","OW506"
"2023-05-20 22:00",6.98864086227036,"Approved","OW506"
"2023-05-20 23:00",6.98864723372624,"Approved","OW506"
"2023-05-21 00:00",6.98765360518212,"Approved","OW506"
"2023-05-21 01:00",6.98665997663799,"Approved","OW506"
"2023-05-21 02:00",6.98766634809387,"Approved","OW506"
"2023-05-21 03:00",6.98767271954975,"Approved","OW506"
"2023-05-21 04:00",6.98667909100563,"Approved","OW506"
"2023-05-21 05:00",6.98868546246151,"Approved","OW506"
"2023-05-21 06:00",6.98869183391738,"Approved","OW506"
"2023-05-21 07:00",6.98769820537326,"Approved","OW506"
"2023-05-21 08:00",6.98570457682914,"Approved","OW506"
"2023-05-21 09:00",6.98571094828502,"Approved","OW506"
"2023-05-21 10:00",6.98571731974089,"Approved","OW506"
"2023-05-21 11:00",6.98472369119677,"Approved","OW506"
"2023-05-21 12:00",6.98573006265265,"Approved","OW506"
"2023-05-21 13:00",6.98573643410853,"Approved","OW506"
"2023-05-21 14:00",6.98474280556441,"Approved","OW506"
"2023-05-21 15:00",6.98474917702028,"Approved","OW506"
"2023-05-21 16:00",6.98375554847616,"Approved","OW506"
"2023-05-21 17:00",6.98476191993204,"Approved","OW506"
"2023-05-21 18:00",6.98476829138792,"Approved","OW506"
"2023-05-21 19:00",6.98377466284379,"Approved","OW506"
"2023-05-21 20:00",6.98278103429967,"Approved","OW506"
"2023-05-21 21:00",6.98378740575555,"Approved","OW506"
"2023-05-21 22:00",6.98479377721143,"Approved","OW506"
"2023-05-21 23:00",6.9828001486673,"Approved","OW506"
"2023-05-22 00:00",6.98080652012318,"Approved","OW506"
"2023-05-22 01:00",6.98081289157906,"Approved","OW506"
"2023-05-22 02:00",6.98081926303494,"Approved","OW506"
"2023-05-22 03:00",6.98182563449081,"Approved","OW506"
"2023-05-22 04:00",6.98183200594669,"Approved","OW506"
"2023-05-22 05:00",6.98183837740257,"Approved","OW506"
"2023-05-22 06:00",6.98284474885845,"Approved","OW506"
"2023-05-22 07:00",6.98385112031433,"Approved","OW506"
"2023-05-22 08:00",6.9848574917702,"Approved","OW506"
"2023-05-22 09:00",6.98486386322608,"Approved","OW506"
"2023-05-22 10:00",6.98487023468196,"Approved","OW506"
"2023-05-22 11:00",6.98487660613784,"Approved","OW506"
"2023-05-22 12:00",6.98388297759371,"Approved","OW506"
"2023-05-22 13:00",6.98388934904959,"Approved","OW506"
"2023-05-22 14:00",6.98489572050547,"Approved","OW506"
"2023-05-22 15:00",6.98490209196135,"Approved","OW506"
"2023-05-22 16:00",6.98590846341722,"Approved","OW506"
"2023-05-22 17:00",6.9859148348731,"Approved","OW506"
"2023-05-22 18:00",6.98592120632898,"Approved","OW506"
"2023-05-22 19:00",6.98592757778486,"Approved","OW506"
"2023-05-22 20:00",6.98593394924074,"Approved","OW506"
"2023-05-22 21:00",6.98594032069661,"Approved","OW506"
"2023-05-22 22:00",6.98694669215249,"Approved","OW506"
"2023-05-22 23:00",6.98695306360837,"Approved","OW506"
"2023-05-23 00:00",6.98695943506425,"Approved","OW506"
"2023-05-23 01:00",6.98596580652012,"Approved","OW506"
"2023-05-23 02:00",6.984972177976,"Approved","OW506"
"2023-05-23 03:00",6.98597854943188,"Approved","OW506"
"2023-05-23 04:00",6.98598492088776,"Approved","OW506"
"2023-05-23 05:00",6.98699129234363,"Approved","OW506"
"2023-05-23 06:00",6.98699766379951,"Approved","OW506"
"2023-05-23 07:00",6.98800403525539,"Approved","OW506"
"2023-05-23 08:00",6.98801040671127,"Approved","OW506"
"2023-05-23 09:00",6.98801677816714,"Approved","OW506"
"2023-05-23 10:00",6.98802314962302,"Approved","OW506"
"2023-05-23 11:00",6.9890295210789,"Approved","OW506"
"2023-05-23 12:00",6.98903589253478,"Approved","OW506"
"2023-05-23 13:00",6.99004226399065,"Approved","OW506"
"2023-05-23 14:00",6.99004863544653,"Approved","OW506"
"2023-05-23 15:00",6.99005500690241,"Approved","OW506"
"2023-05-23 16:00",6.99006137835829,"Approved","OW506"
"2023-05-23 17:00",6.99006774981417,"Approved","OW506"
"2023-05-23 18:00",6.99107412127004,"Approved","OW506"